This is the latest recevied weather packets stored in our database for station/object KI5NXU. If no packets are shown the sender has not sent any weather packets the latest 10 day(s).
| Time | Temp. | Humidity | Pressure | Rain* | Wind** | Luminosity | Snow |
|---|---|---|---|---|---|---|---|
| 1788241672 | 27.78° C | 52% | 1015.1 hPa | 0 mm | - | 0 W/m² | - |
| 1788241368 | 28.33° C | 52% | 1015.2 hPa | 0 mm | - | 0 W/m² | - |
| 1788241063 | 28.33° C | 52% | 1015.2 hPa | 0 mm | - | 0 W/m² | - |
| 1788240758 | 28.33° C | 52% | 1015.2 hPa | 0 mm | - | 0 W/m² | - |
| 1788240454 | 28.33° C | 51% | 1015.1 hPa | 0 mm | - | 0 W/m² | - |
| 1788240149 | 28.89° C | 50% | 1014.9 hPa | 0 mm | - | 0 W/m² | - |
| 1788239848 | 28.89° C | 50% | 1015.1 hPa | 0 mm | - | 0 W/m² | - |
| 1788239542 | 28.89° C | 49% | 1014.9 hPa | 0 mm | - | 0 W/m² | - |
| 1788239238 | 29.44° C | 49% | 1015.1 hPa | 0 mm | - | 0 W/m² | - |
| 1788238934 | 29.44° C | 49% | 1014.9 hPa | 0 mm | - | 0 W/m² | - |
| 1788238628 | 29.44° C | 48% | 1015 hPa | 0 mm | - | 0 W/m² | - |
| 1788238323 | 29.44° C | 48% | 1014.9 hPa | 0 mm | - | 0 W/m² | - |
| 1788238013 | 29.44° C | 48% | 1015 hPa | 0 mm | - | 0 W/m² | - |
| 1788237709 | 30° C | 47% | 1014.9 hPa | 0 mm | - | 0 W/m² | - |
| 1788237405 | 30° C | 47% | 1015.1 hPa | 0 mm | - | 0 W/m² | - |
| 1788237100 | 30° C | 47% | 1015 hPa | 0 mm | - | 0 W/m² | - |
| 1788236799 | 29.44° C | 47% | 1015.1 hPa | 0 mm | - | 0 W/m² | - |
| 1788236494 | 30° C | 47% | 1014.9 hPa | 0 mm | - | 0 W/m² | - |
| 1788236190 | 30° C | 46% | 1015 hPa | 0 mm | - | 0 W/m² | - |
| 1788235885 | 30° C | 46% | 1014.9 hPa | 0 mm | - | 0 W/m² | - |
| 1788235584 | 30° C | 46% | 1015 hPa | 0 mm | - | 0 W/m² | - |
| 1788235278 | 30° C | 46% | 1014.7 hPa | 0 mm | - | 0 W/m² | - |
| 1788234976 | 30.56° C | 45% | 1015 hPa | 0 mm | - | 0 W/m² | - |
| 1788234675 | 30.56° C | 44% | 1014.7 hPa | 0 mm | - | 0 W/m² | - |
| 1788234375 | 30.56° C | 44% | 1014.9 hPa | 0 mm | - | 0 W/m² | - |
* Rain latest hour (hover to see other rain measurements)
** Current wind speed in m/s (hover to see current wind gust speed)